Location: Bismarck
(46.7731°N, 100.8200°W)
Time: 14:28:18
(UTC-06:00)

ISS - All Passes

Search period start: 24 November 2017 00:00
Search period end: 04 December 2017 00:00
Orbit: 401 x 407 km, 51.6° (Epoch: 25 November)

Date Brightness Start Highest point End Pass type
(mag) Time Alt. Az. Time Alt. Az. Time Alt. Az.
24 Nov - 00:57:30 10° WNW 01:00:39 43° NNE 01:03:47 10° E night (unlit)
24 Nov - 02:34:00 10° WNW 02:37:11 49° SSW 02:40:20 10° SE night (unlit)
24 Nov - 19:18:12 10° SE 19:18:44 10° SE 19:19:17 10° ESE visible
24 Nov - 20:51:23 10° SW 20:54:38 62° SSE 20:57:53 10° ENE night (unlit)
24 Nov - 22:28:07 10° W 22:31:14 39° NNW 22:34:22 10° ENE night (unlit)
25 Nov - 00:05:06 10° WNW 00:08:11 36° N 00:11:15 10° ENE night (unlit)
25 Nov - 01:41:37 10° WNW 01:44:52 82° SSW 01:48:09 10° ESE night (unlit)
25 Nov - 03:19:05 10° W 03:20:54 14° SW 03:22:43 10° S night (unlit)
25 Nov - 19:59:19 10° SSW 20:02:21 36° SE 20:05:24 10° ENE visible
25 Nov - 21:35:34 10° W 21:38:47 50° NNW 21:41:59 10° ENE night (unlit)
25 Nov - 23:12:39 10° WNW 23:15:41 33° N 23:18:42 10° ENE night (unlit)
26 Nov - 00:49:14 10° WNW 00:52:30 66° NNE 00:55:45 10° ESE night (unlit)
26 Nov - 02:26:04 10° W 02:28:45 24° SW 02:31:27 10° SSE night (unlit)
26 Nov - 19:07:34 10° S 19:10:08 21° SE 19:12:43 10° E visible
26 Nov - 20:43:05 10° WSW 20:46:20 72° NNW 20:49:38 10° ENE visible
26 Nov - 22:20:07 10° WNW 22:23:09 33° N 22:26:11 10° ENE night (unlit)
26 Nov - 23:56:53 10° WNW 00:00:04 47° NNE 00:03:15 10° E night (unlit)
27 Nov - 01:33:25 10° WNW 01:36:31 40° SW 01:39:37 10° SE night (unlit)
27 Nov - 18:16:29 10° SSE 18:17:59 13° SE 18:19:30 10° ESE visible
27 Nov - 19:50:42 10° SW 19:53:58 74° SSE 19:57:14 10° ENE visible
27 Nov - 21:27:32 10° W 21:30:38 37° N 21:33:43 10° ENE night (unlit)
27 Nov - 23:04:28 10° WNW 23:07:34 38° N 23:10:40 10° E night (unlit)
28 Nov - 00:40:57 10° WNW 00:44:13 69° SSW 00:47:28 10° SE night (unlit)
28 Nov - 02:18:55 10° WSW 02:20:09 12° SW 02:21:23 10° SSW night (unlit)
28 Nov - 18:58:30 10° SW 19:01:37 43° SE 19:04:46 10° ENE visible
28 Nov - 20:34:56 10° W 20:38:07 46° NNW 20:41:18 10° ENE visible
28 Nov - 22:12:00 10° WNW 22:15:02 34° N 22:18:04 10° ENE night (unlit)
28 Nov - 23:48:32 10° WNW 23:51:49 75° NNE 23:55:05 10° ESE night (unlit)
29 Nov - 01:25:30 10° W 01:28:00 20° SW 01:30:28 10° S night (unlit)
29 Nov - 18:06:34 10° SSW 18:09:21 26° SE 18:12:08 10° E visible
29 Nov - 19:42:22 10° WSW 19:45:38 63° NNW 19:48:53 10° ENE visible
29 Nov - 21:19:27 10° WNW 21:22:28 33° N 21:25:30 10° ENE night (unlit)
29 Nov - 22:56:08 10° WNW 22:59:21 52° NNE 23:02:34 10° E night (unlit)
30 Nov - 00:32:44 10° WNW 00:35:45 34° SW 00:38:44 10° SSE night (unlit)
30 Nov - 17:15:08 10° S 17:17:08 15° SE 17:19:08 10° E daylight
30 Nov - 18:49:54 10° WSW 18:53:11 86° SSE 18:56:28 10° ENE visible
30 Nov - 20:26:50 10° WNW 20:29:54 35° N 20:32:58 10° ENE visible
30 Nov - 22:03:42 10° WNW 22:06:50 40° NNE 22:09:57 10° E night (unlit)
30 Nov - 23:40:11 10° WNW 23:43:25 58° SSW 23:46:38 10° SE night (unlit)
01 Dec - 17:57:36 10° SW 18:00:48 52° SSE 18:04:00 10° ENE visible
01 Dec - 19:34:11 10° W 19:37:20 42° NNW 19:40:30 10° ENE visible
01 Dec - 21:11:12 10° WNW 21:14:17 35° N 21:17:19 10° ENE night (unlit)
01 Dec - 22:47:43 10° WNW 22:51:01 87° NNE 22:54:17 10° ESE night (unlit)
02 Dec - 00:24:55 10° W 00:27:06 17° SW 00:29:18 10° S night (unlit)
02 Dec - 17:05:31 10° SSW 17:08:27 30° SE 17:11:24 10° ENE daylight
02 Dec - 18:41:34 10° W 18:44:48 56° NNW 18:48:03 10° ENE visible
02 Dec - 20:18:39 10° WNW 20:21:40 33° N 20:24:41 10° ENE visible
02 Dec - 21:55:17 10° WNW 21:58:32 58° NNE 22:01:46 10° E night (unlit)
02 Dec - 23:31:58 10° W 23:34:51 28° SW 23:37:42 10° SSE night (unlit)
03 Dec - 16:13:51 10° S 16:16:11 18° SE 16:18:31 10° E daylight
03 Dec - 17:49:01 10° WSW 17:52:18 82° NNW 17:55:36 10° ENE visible
03 Dec - 19:26:00 10° WNW 19:29:04 34° N 19:32:06 10° ENE visible
03 Dec - 21:02:49 10° WNW 21:05:59 43° NNE 21:09:08 10° E night (unlit)
03 Dec - 22:39:19 10° WNW 22:42:30 48° SSW 22:45:40 10° SE night (unlit)
